Wind_Speed
8 8 8 8 9 9 9 8 9 10 11 11 12 12 12 12 11 12 12 13 14 14 14 14 14 14 14 14 14 14 14 14 14 14 13 12 12 12 12 12 12 12 12
7 8 8 9 9 9 9 8 8 9 10 10 11 12 12 13 12 12 13 13 14 14 14 14 14 14 14 14 14 14 14 14 14 14 13 13 13 13 13 12 12 12 12
7 7 8 9 9 8 8 8 8 9 10 11 11 12 13 13 12 12 12 12 13 13 14 14 14 15 15 16 15 14 14 15 15 14 13 13 12 12 12 12 12 12 12
7 7 8 8 8 8 9 9 8 10 10 10 11 11 12 12 12 12 12 12 12 12 13 13 14 14 15 15 15 14 14 14 14 14 13 13 13 12 12 12 12 12 13
7 8 9 9 9 9 9 9 9 10 10 11 11 11 11 11 11 12 12 12 12 12 12 12 12 12 13 13 13 13 13 13 14 13 13 12 12 12 12 13 13 12 13
8 9 9 9 9 9 9 10 10 10 10 11 11 11 11 12 12 12 12 12 11 11 11 12 12 12 13 14 13 13 13 12 13 13 13 13 12 12 13 13 13 13 13
8 9 9 9 9 9 9 10 9 9 10 11 11 12 11 11 11 12 12 11 11 11 12 12 12 12 13 13 13 13 13 12 12 12 12 12 12 13 14 14 13 13 13
9 9 10 9 9 9 9 9 9 9 10 10 11 11 11 11 11 11 11 11 12 12 12 12 12 12 12 13 14 13 13 13 13 13 12 12 13 13 13 13 13 13 13
10 10 10 10 9 9 9 9 9 9 9 9 10 11 11 12 12 12 12 12 12 13 12 12 13 13 13 12 12 13 13 12 12 13 13 13 13 14 13 14 14 14 14
10 11 11 10 10 10 10 10 9 9 10 10 10 11 11 12 11 12 12 12 13 13 13 12 12 12 12 12 12 12 13 13 13 14 14 14 13 14 14 14 15 14 14
12 12 11 11 11 11 11 11 11 10 11 11 11 11 12 12 12 13 12 13 14 14 14 13 13 13 13 12 13 13 14 14 15 15 15 15 14 14 15 16 16 15 16
13 13 13 13 13 12 12 13 12 12 12 12 12 12 12 12 13 13 13 14 14 14 14 14 14 13 13 13 13 13 14 15 16 15 15 16 16 15 16 16 17 16 17
14 14 14 14 14 14 14 14 13 14 14 13 13 13 13 14 14 13 14 14 14 15 15 15 14 14 14 14 14 13 14 14 15 16 15 16 17 16 15 15 15 16 16
16 16 15 15 15 15 15 15 15 15 15 15 14 15 15 15 15 15 14 15 15 15 15 15 15 15 15 15 15 15 15 15 15 16 16 16 16 16 15 15 15 16 16
16 16 17 17 16 16 17 17 16 16 16 16 16 16 16 16 16 16 16 15 16 15 16 16 15 15 16 15 15 16 15 15 15 15 16 16 16 16 16 15 15 16 16
17 18 18 17 17 17 17 17 17 17 17 17 17 17 17 17 17 17 17 17 17 16 16 16 16 17 17 16 16 16 16 17 16 16 16 16 16 16 16 16 16 16 16
18 18 18 18 18 18 17 17 17 17 18 17 17 17 17 17 17 18 18 18 18 18 17 17 17 17 17 18 18 17 18 18 18 17 17 17 17 18 18 18 18 17 17
18 18 18 19 19 19 19 18 18 19 19 19 18 18 18 18 18 18 18 18 19 19 18 18 19 19 19 19 19 19 19 19 19 18 18 18 19 19 19 19 19 19 19
19 19 19 19 19 19 20 20 20 19 19 19 19 19 19 20 19 19 20 20 20 20 20 20 20 20 20 20 20 20 20 20 20 20 20 20 20 20 20 20 20 20 20
19 18 18 18 18 19 19 19 20 20 19 19 20 20 20 20 20 20 20 20 21 21 21 21 21 21 21 21 21 21 21 21 21 21 21 22 21 21 22 21 21 21 21
19 18 19 19 19 19 19 19 19 20 20 20 19 19 20 21 21 21 21 21 21 21 21 22 22 22 22 22 22 22 22 22 23 23 23 23 23 23 23 22 23 23 22
19 19 19 19 19 19 19 20 20 20 20 20 20 19 19 19 20 21 22 22 22 22 22 22 22 22 22 23 23 23 23 23 23 24 24 24 25 24 24 24 24 24 23
20 20 20 20 19 19 19 20 20 20 20 20 21 21 22 20 20 21 22 22 23 23 23 23 23 23 23 23 24 24 24 24 24 24 25 25 24 24 24 24 25 25 24
21 21 21 20 20 20 20 20 21 20 20 20 20 21 22 22 22 21 22 22 23 24 24 24 24 24 24 24 25 25 25 25 25 24 25 25 25 25 24 24 25 25 25
21 21 21 21 21 21 21 21 22 22 21 21 21 21 21 22 23 22 22 22 23 23 24 25 25 25 25 25 25 26 26 26 26 26 25 26 26 26 26 25 25 25 25
22 22 22 22 22 22 22 22 22 22 21 22 22 22 22 23 23 24 24 24 24 25 26 26 27 27 28 27 27 27 27 28 28 28 27 28 27 27 27 27 28 28 27
Wind_Direction
287 283 281 277 276 272 270 265 253 246 245 244 241 240 242 246 242 238 242 243 243 244 245 247 248 248 250 250 249 250 248 249 250 252 251 251 252 254 255 258 259 262 263
290 287 281 278 274 272 269 266 257 249 246 246 243 242 244 249 248 247 246 246 247 247 246 247 248 249 248 245 246 249 248 247 248 249 250 249 251 252 255 259 259 260 262
295 290 286 278 271 270 266 262 256 246 247 246 246 246 246 249 249 249 249 248 249 248 246 247 246 247 249 248 247 249 247 247 249 249 249 249 251 254 256 261 262 262 264
300 297 290 283 274 271 270 264 256 251 249 249 248 246 247 248 249 249 250 251 252 251 248 248 248 247 246 246 247 249 247 245 248 248 250 251 252 253 256 258 261 262 265
302 298 292 288 282 275 271 264 260 257 254 253 251 251 251 250 251 250 250 249 250 251 249 250 251 250 247 246 246 248 246 246 246 246 249 251 251 251 254 257 259 260 263
302 298 299 297 290 282 274 267 265 261 258 255 253 253 253 252 251 250 249 247 247 248 251 252 253 253 250 248 247 247 246 247 246 245 247 249 251 252 255 259 258 260 263
302 298 297 297 293 289 281 272 270 266 262 260 256 255 255 252 250 249 246 245 246 248 249 249 251 250 248 247 247 247 244 246 246 246 249 250 252 255 257 258 259 261 262
300 299 297 292 289 289 286 277 276 275 271 265 258 253 252 251 249 247 246 248 249 248 248 248 249 248 249 247 245 243 240 242 244 248 250 251 254 255 258 260 263 262 262
295 294 294 291 289 286 282 279 278 275 269 267 263 257 252 247 246 250 251 252 253 251 251 250 247 246 248 249 244 240 238 239 245 250 252 253 256 256 260 262 263 261 261
291 292 291 288 287 285 280 279 277 273 269 267 262 258 254 250 248 252 253 254 254 253 253 252 251 250 249 248 246 243 240 242 245 250 254 254 256 258 261 262 261 259 259
288 287 287 283 282 283 279 278 278 274 272 269 265 258 253 251 252 252 250 252 253 253 253 253 252 252 249 248 243 244 245 246 248 252 256 255 258 262 263 262 260 258 259
287 285 285 282 279 279 278 278 277 273 272 269 264 259 253 252 253 252 251 251 251 251 251 252 253 252 249 247 245 243 244 246 249 252 254 256 260 263 264 262 258 258 259
286 284 284 283 280 277 276 276 276 274 272 269 263 259 255 253 252 252 252 251 251 251 251 251 251 251 250 248 248 248 249 250 252 251 253 258 260 262 263 261 259 259 260
284 282 282 282 280 277 277 275 274 272 270 268 263 259 256 254 253 253 253 251 251 250 249 250 251 253 253 253 253 254 255 254 255 255 258 261 261 262 262 262 262 261 263
283 280 278 276 276 274 274 274 274 272 271 268 262 259 256 255 253 254 254 253 252 251 251 250 252 253 254 255 257 257 257 258 259 259 261 262 263 262 262 263 264 263 264
281 280 276 274 273 274 272 271 271 270 269 266 262 259 258 257 257 255 254 254 253 253 254 253 253 253 254 255 257 257 259 261 263 263 262 262 264 263 262 263 263 263 265
281 280 277 274 272 273 271 269 269 270 267 264 262 261 260 257 258 258 256 255 255 255 255 255 255 255 255 256 258 256 256 259 262 262 262 261 263 264 264 263 264 266 268
280 279 277 274 272 270 269 268 269 269 267 264 262 261 260 259 258 259 258 256 255 256 255 255 255 256 256 256 257 258 258 258 258 260 260 261 262 263 263 262 264 265 267
280 279 276 275 273 271 270 269 269 269 266 263 260 259 259 259 258 258 257 256 256 257 256 255 255 256 257 258 259 258 259 258 258 258 259 261 262 263 263 262 261 263 264
279 279 277 275 274 273 272 272 270 268 266 263 261 260 259 259 258 257 256 256 256 257 256 256 257 257 258 258 259 260 261 261 260 259 259 260 262 263 262 261 262 262 264
275 277 278 276 276 275 273 272 272 269 267 265 264 262 260 259 258 256 255 255 255 256 256 257 257 258 258 258 260 261 262 262 263 262 260 261 261 261 262 263 263 263 265
273 274 276 276 276 276 274 273 272 269 268 267 267 265 262 261 260 257 256 255 255 255 256 257 257 258 260 260 261 262 262 263 263 263 263 262 262 262 263 263 263 264 266
273 275 277 276 276 275 274 273 272 270 268 269 269 267 264 262 261 259 258 257 257 257 256 257 257 258 260 261 261 262 262 263 264 265 264 262 263 263 262 262 263 265 268
272 273 275 276 276 276 274 271 272 271 269 269 270 269 267 264 262 262 259 258 257 257 257 256 257 258 259 260 261 262 262 264 266 266 266 265 264 264 264 265 266 269 270
271 272 275 273 273 273 273 272 271 270 270 268 268 268 268 266 263 261 259 259 259 258 258 258 258 259 260 260 261 262 263 264 265 265 265 265 265 264 263 264 266 268 271
270 271 272 272 272 271 272 271 271 271 271 269 268 269 268 266 266 265 264 264 263 260 260 260 260 260 261 262 262 263 263 264 265 265 265 264 264 263 262 264 266 267 268
Height
5840 5839 5839 5838 5838 5837 5836 5835 5834 5834 5834 5836 5837 5839 5840 5841 5841 5842 5843 5843 5844 5844 5845 5845 5846 5846 5847 5847 5847 5848 5849 5850 5850 5851 5852 5852 5853 5853 5854 5854 5854 5855 5855
5838 5837 5837 5836 5836 5835 5834 5833 5833 5833 5833 5834 5835 5836 5837 5838 5838 5839 5840 5840 5841 5841 5842 5842 5843 5843 5843 5844 5844 5845 5846 5847 5847 5848 5849 5849 5850 5850 5851 5851 5851 5852 5852
5836 5836 5835 5834 5833 5833 5832 5832 5831 5832 5832 5833 5833 5834 5834 5835 5835 5836 5836 5837 5837 5838 5838 5839 5839 5840 5840 5841 5841 5842 5843 5844 5844 5845 5846 5846 5847 5848 5848 5848 5849 5849 5849
5834 5834 5833 5832 5831 5831 5830 5830 5830 5830 5830 5831 5831 5831 5832 5832 5833 5833 5834 5834 5834 5834 5835 5835 5836 5836 5836 5837 5838 5839 5839 5840 5841 5842 5843 5843 5844 5845 5845 5846 5846 5846 5846
5833 5832 5831 5830 5829 5829 5828 5828 5828 5828 5828 5828 5828 5829 5829 5830 5830 5831 5831 5831 5831 5831 5832 5832 5832 5833 5833 5834 5835 5835 5836 5837 5838 5839 5840 5841 5841 5842 5842 5843 5843 5843 5843
5831 5830 5829 5828 5827 5826 5826 5826 5826 5826 5826 5826 5826 5826 5826 5827 5827 5828 5828 5828 5828 5828 5829 5829 5829 5830 5830 5831 5831 5832 5833 5834 5835 5836 5837 5838 5838 5839 5839 5840 5840 5840 5840
5828 5828 5827 5826 5825 5824 5823 5823 5823 5823 5823 5823 5823 5823 5823 5824 5825 5825 5825 5825 5826 5826 5826 5826 5827 5827 5827 5828 5828 5829 5830 5831 5832 5833 5834 5834 5835 5835 5836 5836 5836 5837 5837
5826 5825 5824 5823 5822 5822 5821 5821 5821 5820 5820 5820 5821 5821 5821 5822 5822 5822 5823 5823 5823 5823 5823 5824 5824 5824 5824 5825 5825 5826 5827 5828 5829 5830 5831 5831 5832 5832 5833 5833 5833 5833 5834
5823 5822 5821 5820 5820 5819 5819 5818 5818 5818 5818 5818 5818 5818 5818 5819 5819 5820 5820 5820 5820 5820 5821 5821 5821 5821 5822 5822 5822 5823 5824 5825 5826 5826 5827 5828 5828 5829 5829 5829 5830 5830 5830
5821 5820 5819 5818 5817 5817 5816 5816 5816 5815 5815 5815 5815 5815 5816 5816 5816 5817 5817 5817 5817 5817 5818 5818 5818 5818 5819 5819 5819 5820 5821 5822 5823 5823 5824 5824 5825 5825 5825 5826 5826 5826 5826
5818 5817 5816 5815 5814 5814 5814 5813 5813 5813 5812 5812 5812 5812 5812 5813 5813 5814 5814 5814 5814 5814 5814 5815 5815 5815 5816 5816 5816 5817 5817 5818 5819 5820 5820 5820 5821 5821 5821 5822 5822 5822 5822
5814 5813 5813 5812 5811 5811 5810 5810 5810 5809 5809 5809 5809 5809 5809 5809 5810 5810 5810 5811 5811 5811 5811 5812 5812 5812 5812 5813 5813 5813 5814 5814 5815 5816 5816 5816 5817 5817 5817 5817 5817 5818 5818
5810 5810 5809 5808 5808 5807 5807 5806 5806 5806 5805 5805 5805 5805 5805 5805 5806 5806 5806 5807 5807 5807 5808 5808 5808 5809 5809 5809 5810 5810 5810 5811 5811 5812 5812 5812 5813 5813 5813 5813 5813 5813 5814
5806 5805 5805 5804 5803 5803 5803 5802 5802 5802 5801 5801 5801 5801 5801 5801 5802 5802 5802 5803 5803 5804 5804 5804 5805 5805 5805 5806 5806 5806 5807 5807 5807 5808 5808 5808 5808 5809 5809 5809 5809 5809 5809
5801 5800 5800 5799 5799 5799 5798 5798 5798 5797 5797 5797 5796 5796 5796 5797 5797 5797 5798 5799 5799 5800 5800 5800 5801 5801 5801 5802 5802 5803 5803 5803 5804 5804 5804 5804 5804 5805 5805 5805 5805 5805 5805
5796 5795 5794 5794 5794 5793 5793 5793 5793 5792 5792 5792 5792 5792 5792 5792 5792 5793 5793 5794 5794 5795 5796 5796 5796 5797 5797 5798 5798 5798 5799 5799 5799 5800 5800 5800 5800 5800 5801 5801 5801 5801 5801
5790 5790 5789 5789 5788 5788 5788 5787 5787 5787 5787 5787 5787 5787 5787 5787 5787 5788 5788 5789 5789 5790 5791 5792 5792 5792 5793 5793 5794 5794 5794 5795 5795 5795 5795 5795 5796 5796 5796 5796 5796 5796 5796
5784 5784 5783 5783 5782 5782 5782 5782 5782 5781 5781 5781 5781 5781 5781 5782 5782 5782 5783 5783 5784 5785 5786 5787 5787 5788 5788 5789 5789 5789 5789 5790 5790 5790 5790 5790 5791 5791 5791 5791 5791 5791 5792
5778 5778 5777 5777 5776 5776 5776 5776 5776 5775 5775 5775 5775 5775 5775 5776 5776 5777 5777 5778 5778 5779 5780 5781 5782 5783 5783 5783 5784 5784 5784 5784 5784 5785 5785 5785 5785 5785 5785 5786 5786 5786 5786
5772 5772 5771 5771 5770 5770 5770 5769 5769 5769 5768 5768 5769 5769 5769 5770 5770 5770 5771 5772 5772 5773 5774 5775 5776 5777 5777 5778 5778 5778 5779 5779 5779 5779 5779 5779 5780 5780 5780 5780 5780 5780 5780
5767 5766 5765 5765 5764 5764 5764 5763 5763 5762 5762 5762 5762 5762 5763 5763 5764 5764 5765 5766 5766 5767 5768 5769 5770 5771 5771 5772 5772 5773 5773 5773 5773 5773 5773 5773 5773 5773 5773 5774 5774 5774 5774
5760 5760 5759 5759 5758 5757 5757 5757 5757 5756 5756 5756 5756 5756 5756 5756 5757 5758 5758 5759 5760 5761 5762 5763 5764 5765 5765 5765 5766 5766 5766 5766 5767 5767 5766 5766 5766 5767 5767 5767 5767 5767 5767
5754 5754 5753 5752 5752 5751 5751 5750 5750 5750 5750 5749 5749 5749 5749 5750 5750 5751 5752 5753 5753 5754 5756 5757 5757 5758 5758 5759 5759 5759 5759 5759 5759 5759 5759 5759 5759 5759 5759 5760 5760 5760 5760
5748 5747 5747 5746 5746 5745 5745 5744 5744 5744 5743 5743 5743 5743 5743 5743 5744 5744 5745 5746 5746 5747 5748 5749 5750 5750 5751 5751 5752 5752 5752 5752 5752 5752 5751 5751 5751 5751 5752 5753 5753 5753 5752
5741 5741 5740 5740 5739 5739 5738 5738 5738 5738 5737 5737 5737 5736 5736 5737 5737 5738 5738 5739 5739 5740 5740 5741 5742 5743 5743 5743 5744 5744 5744 5745 5745 5744 5744 5743 5743 5744 5745 5745 5746 5746 5745
5734 5734 5733 5733 5733 5732 5732 5731 5731 5731 5731 5731 5730 5730 5730 5730 5730 5730 5731 5731 5732 5732 5733 5733 5734 5735 5735 5735 5735 5736 5736 5736 5736 5736 5736 5736 5736 5736 5737 5738 5737 5737 5737